CEB362 RPLL-VMMC

Flight info

Callsign CEB362
Flight time 1h 48m
Altitude 38000
Route SIRCA2P SIRCA L628 DOSUS W3 AKOTA A583 SABNO DCT TOFEE DCT SUKER DCT ALDOM J103 ROBIN DCT CHALI
Aircraft A320/M-SDE3FGHIRWY/LB1

Departure

Time 2026-04-16 11:07
Airport Ninoy Aquino International Airport (RPLL)

Arrival

Time 2026-04-16 12:56
Airport Macau International Airport (VMMC)
Time Latitude Longitude Altitude Speed Heading
2026-04-16 10:42 14.51700 121.01656 82 ft 0 kts 225°
2026-04-16 10:52 14.51707 121.01664 82 ft 2 kts 229°
2026-04-16 10:52 14.51718 121.01675 82 ft 2 kts 225°
2026-04-16 10:53 14.51724 121.01682 82 ft 2 kts 226°
2026-04-16 10:53 14.51737 121.01691 82 ft 2 kts 201°
2026-04-16 10:53 14.51752 121.01695 82 ft 2 kts 182°
2026-04-16 10:53 14.51767 121.01694 82 ft 2 kts 163°
2026-04-16 10:54 14.51781 121.01688 82 ft 2 kts 143°
2026-04-16 10:54 14.51787 121.01682 82 ft 1 kts 133°
2026-04-16 10:54 14.51790 121.01678 82 ft 0 kts 134°
2026-04-16 10:57 14.51786 121.01683 82 ft 2 kts 134°
2026-04-16 10:57 14.51764 121.01706 82 ft 6 kts 135°
2026-04-16 10:58 14.51722 121.01748 82 ft 10 kts 136°
2026-04-16 10:58 14.51664 121.01784 82 ft 10 kts 176°
2026-04-16 10:58 14.51603 121.01754 82 ft 7 kts 224°
2026-04-16 10:58 14.51556 121.01705 82 ft 10 kts 225°
2026-04-16 10:59 14.51502 121.01650 82 ft 11 kts 224°
2026-04-16 10:59 14.51451 121.01610 82 ft 7 kts 188°
2026-04-16 10:59 14.51408 121.01640 82 ft 8 kts 134°
2026-04-16 10:59 14.51365 121.01684 82 ft 9 kts 135°
2026-04-16 11:00 14.51315 121.01734 82 ft 10 kts 134°
2026-04-16 11:00 14.51264 121.01788 82 ft 11 kts 135°
2026-04-16 11:00 14.51206 121.01846 82 ft 11 kts 135°
2026-04-16 11:00 14.51148 121.01907 82 ft 12 kts 135°
2026-04-16 11:01 14.51099 121.01955 82 ft 6 kts 135°
2026-04-16 11:01 14.51065 121.01991 82 ft 6 kts 129°
2026-04-16 11:01 14.51068 121.02036 82 ft 7 kts 60°
2026-04-16 11:01 14.51095 121.02087 82 ft 8 kts 60°
2026-04-16 11:02 14.51128 121.02145 82 ft 10 kts 60°
2026-04-16 11:02 14.51165 121.02211 82 ft 11 kts 60°
2026-04-16 11:02 14.51205 121.02284 82 ft 12 kts 61°
2026-04-16 11:02 14.51248 121.02362 82 ft 12 kts 60°
2026-04-16 11:03 14.51294 121.02444 82 ft 13 kts 60°
2026-04-16 11:03 14.51343 121.02531 82 ft 14 kts 60°
2026-04-16 11:03 14.51444 121.02713 82 ft 11 kts 60°
2026-04-16 11:04 14.51486 121.02788 82 ft 12 kts 60°
2026-04-16 11:04 14.51498 121.02832 82 ft 3 kts 114°
2026-04-16 11:04 14.51478 121.02847 82 ft 0 kts 149°
2026-04-16 11:05 14.51468 121.02853 82 ft 3 kts 150°
2026-04-16 11:05 14.51438 121.02871 82 ft 6 kts 150°
2026-04-16 11:05 14.51390 121.02884 82 ft 6 kts 200°
2026-04-16 11:06 14.51363 121.02856 82 ft 0 kts 239°
2026-04-16 11:06 14.51340 121.02812 82 ft 30 kts 241°
2026-04-16 11:07 14.51106 121.02389 82 ft 101 kts 240°
2026-04-16 11:07 14.50661 121.01589 112 ft 151 kts 242°
2026-04-16 11:07 14.50120 121.00619 573 ft 156 kts 242°
2026-04-16 11:07 14.49581 120.99628 1144 ft 161 kts 243°
2026-04-16 11:08 14.49273 120.98570 1732 ft 163 kts 261°
2026-04-16 11:08 14.49155 120.97337 2223 ft 175 kts 264°
2026-04-16 11:08 14.49059 120.96030 2607 ft 190 kts 264°
2026-04-16 11:08 14.48949 120.94583 2840 ft 212 kts 264°
2026-04-16 11:09 14.48832 120.92966 3187 ft 232 kts 266°
2026-04-16 11:09 14.48754 120.91217 3618 ft 249 kts 266°
2026-04-16 11:09 14.48682 120.89370 4059 ft 267 kts 267°
2026-04-16 11:09 14.48601 120.87395 4488 ft 285 kts 267°
2026-04-16 11:10 14.48511 120.85284 4894 ft 304 kts 267°
2026-04-16 11:10 14.48413 120.83041 5424 ft 318 kts 267°
2026-04-16 11:10 14.48307 120.80670 5875 ft 336 kts 268°
2026-04-16 11:10 14.48196 120.78231 6569 ft 344 kts 268°
2026-04-16 11:11 14.48080 120.75716 7351 ft 348 kts 268°
2026-04-16 11:11 14.47964 120.73172 8127 ft 353 kts 268°
2026-04-16 11:11 14.47846 120.70626 8850 ft 358 kts 268°
2026-04-16 11:11 14.47726 120.68020 9573 ft 363 kts 268°
2026-04-16 11:12 14.47603 120.65353 10286 ft 367 kts 268°
2026-04-16 11:12 14.47479 120.62686 10965 ft 370 kts 268°
2026-04-16 11:12 14.47354 120.60007 11565 ft 376 kts 268°
2026-04-16 11:12 14.47227 120.57306 12157 ft 381 kts 268°
2026-04-16 11:13 14.47097 120.54563 12759 ft 384 kts 268°
2026-04-16 11:13 14.46965 120.51800 13343 ft 388 kts 268°
2026-04-16 11:13 14.46831 120.48982 13936 ft 391 kts 268°
2026-04-16 11:13 14.46697 120.46191 14511 ft 394 kts 268°
2026-04-16 11:14 14.46560 120.43340 15080 ft 397 kts 268°
2026-04-16 11:14 14.46421 120.40479 15634 ft 400 kts 268°
2026-04-16 11:14 14.46281 120.37581 16179 ft 403 kts 268°
2026-04-16 11:14 14.46142 120.34695 16709 ft 406 kts 268°
2026-04-16 11:15 14.45987 120.31778 17239 ft 409 kts 267°
2026-04-16 11:15 14.45788 120.28859 17744 ft 412 kts 266°
2026-04-16 11:15 14.45575 120.25902 18231 ft 415 kts 266°
2026-04-16 11:15 14.45360 120.22925 18720 ft 418 kts 266°
2026-04-16 11:16 14.45145 120.19935 19200 ft 420 kts 266°
2026-04-16 11:16 14.44928 120.16904 19667 ft 423 kts 266°
2026-04-16 11:16 14.44710 120.13864 20124 ft 426 kts 266°
2026-04-16 11:16 14.44491 120.10805 20557 ft 429 kts 266°
2026-04-16 11:17 14.44270 120.07732 20980 ft 433 kts 266°
2026-04-16 11:17 14.44044 120.04597 21411 ft 436 kts 266°
2026-04-16 11:17 14.43818 120.01457 21840 ft 438 kts 266°
2026-04-16 11:17 14.43592 119.98325 22243 ft 441 kts 266°
2026-04-16 11:18 14.43366 119.95178 22639 ft 445 kts 266°
2026-04-16 11:18 14.43136 119.91966 23061 ft 447 kts 266°
2026-04-16 11:18 14.42908 119.88801 23491 ft 448 kts 266°
2026-04-16 11:18 14.42675 119.85596 23928 ft 450 kts 266°
2026-04-16 11:19 14.42440 119.82363 24348 ft 451 kts 266°
2026-04-16 11:19 14.42206 119.79142 24745 ft 453 kts 266°
2026-04-16 11:19 14.41969 119.75858 25141 ft 454 kts 266°
2026-04-16 11:19 14.41738 119.72640 25519 ft 456 kts 266°
2026-04-16 11:20 14.41499 119.69363 25895 ft 457 kts 266°
2026-04-16 11:20 14.41258 119.66087 26252 ft 459 kts 266°
2026-04-16 11:20 14.41018 119.62816 26596 ft 460 kts 266°
2026-04-16 11:20 14.40775 119.59519 26927 ft 462 kts 266°
2026-04-16 11:21 14.40532 119.56207 27242 ft 463 kts 267°
2026-04-16 11:21 14.40652 119.52921 27486 ft 465 kts 281°
2026-04-16 11:21 14.41676 119.49772 27736 ft 465 kts 298°
2026-04-16 11:21 14.43485 119.47056 28009 ft 465 kts 312°
2026-04-16 11:22 14.45718 119.44617 28324 ft 465 kts 314°
2026-04-16 11:22 14.47948 119.42214 28571 ft 467 kts 314°
2026-04-16 11:22 14.50196 119.39781 28858 ft 468 kts 314°
2026-04-16 11:22 14.52432 119.37347 29218 ft 466 kts 314°
2026-04-16 11:23 14.54662 119.34908 29589 ft 465 kts 313°
2026-04-16 11:23 14.56891 119.32451 29945 ft 464 kts 313°
2026-04-16 11:23 14.59078 119.30029 30298 ft 463 kts 313°
2026-04-16 11:23 14.61281 119.27590 30658 ft 462 kts 313°
2026-04-16 11:24 14.63483 119.25155 31013 ft 462 kts 313°
2026-04-16 11:24 14.65664 119.22743 31353 ft 461 kts 313°
2026-04-16 11:24 14.67862 119.20314 31688 ft 460 kts 313°
2026-04-16 11:24 14.70027 119.17921 32014 ft 460 kts 313°
2026-04-16 11:25 14.72223 119.15496 32339 ft 459 kts 313°
2026-04-16 11:25 14.74416 119.13072 32676 ft 458 kts 313°
2026-04-16 11:25 14.76604 119.10654 33028 ft 457 kts 313°
2026-04-16 11:25 14.78786 119.08241 33371 ft 456 kts 313°
2026-04-16 11:26 14.80930 119.05868 33707 ft 455 kts 312°
2026-04-16 11:26 14.83105 119.03463 34043 ft 455 kts 312°
2026-04-16 11:26 14.85261 119.01077 34374 ft 454 kts 312°
2026-04-16 11:26 14.87428 118.98676 34706 ft 452 kts 312°
2026-04-16 11:27 14.89580 118.96292 35021 ft 451 kts 312°
2026-04-16 11:27 14.91700 118.93944 35323 ft 450 kts 312°
2026-04-16 11:27 14.93854 118.91557 35609 ft 449 kts 312°
2026-04-16 11:27 14.95965 118.89217 35855 ft 449 kts 312°
2026-04-16 11:28 14.98103 118.86846 36079 ft 449 kts 312°
2026-04-16 11:28 15.00237 118.84480 36280 ft 449 kts 312°
2026-04-16 11:28 15.02362 118.82121 36432 ft 451 kts 312°
2026-04-16 11:28 15.04495 118.79754 36558 ft 452 kts 312°
2026-04-16 11:29 15.06646 118.77366 36690 ft 453 kts 312°
2026-04-16 11:29 15.08803 118.74970 36814 ft 454 kts 312°
2026-04-16 11:29 15.10970 118.72565 36950 ft 455 kts 312°
2026-04-16 11:29 15.13149 118.70159 37087 ft 456 kts 313°
2026-04-16 11:30 15.15312 118.67772 37218 ft 456 kts 313°
2026-04-16 11:30 15.17472 118.65383 37336 ft 457 kts 312°
2026-04-16 11:30 15.19680 118.62936 37456 ft 457 kts 312°
2026-04-16 11:30 15.21849 118.60529 37572 ft 458 kts 312°
2026-04-16 11:31 15.24002 118.58136 37679 ft 458 kts 312°
2026-04-16 11:31 15.28351 118.53296 37871 ft 459 kts 312°
2026-04-16 11:32 15.32717 118.48431 37890 ft 461 kts 312°
2026-04-16 11:32 15.37088 118.43557 37898 ft 461 kts 312°
2026-04-16 11:33 15.41465 118.38673 37903 ft 462 kts 312°
2026-04-16 11:33 15.45842 118.33784 37905 ft 462 kts 311°
2026-04-16 11:34 15.50215 118.28866 37905 ft 462 kts 311°
2026-04-16 11:34 15.54596 118.23952 37905 ft 462 kts 312°
2026-04-16 11:35 15.58961 118.19063 37904 ft 462 kts 311°
2026-04-16 11:35 15.63350 118.14149 37903 ft 462 kts 311°
2026-04-16 11:36 15.67711 118.09261 37903 ft 463 kts 311°
2026-04-16 11:36 15.72114 118.04324 37903 ft 463 kts 312°
2026-04-16 11:37 15.76497 117.99407 37903 ft 463 kts 311°
2026-04-16 11:37 15.80871 117.94497 37903 ft 463 kts 311°
2026-04-16 11:38 15.85252 117.89576 37903 ft 462 kts 311°
2026-04-16 11:38 15.89595 117.84694 37902 ft 462 kts 311°
2026-04-16 11:39 15.93958 117.79786 37902 ft 462 kts 311°
2026-04-16 11:39 15.98344 117.74849 37902 ft 463 kts 311°
2026-04-16 11:40 16.02703 117.69938 37903 ft 463 kts 311°
2026-04-16 11:40 16.07061 117.65025 37903 ft 462 kts 311°
2026-04-16 11:41 16.11414 117.60118 37903 ft 462 kts 311°
2026-04-16 11:41 16.15797 117.55203 37903 ft 462 kts 311°
2026-04-16 11:42 16.20144 117.50305 37903 ft 462 kts 311°
2026-04-16 11:42 16.24484 117.45396 37903 ft 461 kts 311°
2026-04-16 11:43 16.28825 117.40478 37903 ft 461 kts 311°
2026-04-16 11:43 16.33132 117.35588 37903 ft 461 kts 311°
2026-04-16 11:44 16.37461 117.30653 37903 ft 460 kts 311°
2026-04-16 11:44 16.41888 117.25847 37903 ft 460 kts 315°
2026-04-16 11:45 16.46749 117.21542 37903 ft 461 kts 321°
2026-04-16 11:45 16.52075 117.17771 37903 ft 462 kts 327°
2026-04-16 11:46 16.57747 117.14568 37903 ft 463 kts 331°
2026-04-16 11:46 16.63485 117.11522 37903 ft 463 kts 331°
2026-04-16 11:47 16.69242 117.08465 37903 ft 462 kts 331°
2026-04-16 11:47 16.74960 117.05420 37906 ft 462 kts 331°
2026-04-16 11:48 16.80696 117.02361 37915 ft 462 kts 331°
2026-04-16 11:48 16.86419 116.99307 37920 ft 462 kts 331°
2026-04-16 11:49 16.92142 116.96252 37922 ft 463 kts 331°
2026-04-16 11:49 16.97900 116.93175 37922 ft 463 kts 331°
2026-04-16 11:50 17.03632 116.90108 37921 ft 462 kts 331°
2026-04-16 11:50 17.09352 116.87047 37916 ft 462 kts 331°
2026-04-16 11:51 17.15075 116.83993 37909 ft 461 kts 331°
2026-04-16 11:51 17.20804 116.80935 37904 ft 460 kts 331°
2026-04-16 11:52 17.26482 116.77894 37903 ft 460 kts 331°
2026-04-16 11:52 17.32175 116.74839 37903 ft 460 kts 331°
2026-04-16 11:53 17.37876 116.71777 37902 ft 460 kts 331°
2026-04-16 11:53 17.43605 116.68696 37903 ft 461 kts 331°
2026-04-16 11:54 17.49317 116.65622 37903 ft 460 kts 331°
2026-04-16 11:54 17.55018 116.62550 37903 ft 460 kts 331°
2026-04-16 11:55 17.60721 116.59474 37903 ft 460 kts 331°
2026-04-16 11:55 17.66373 116.56423 37903 ft 459 kts 331°
2026-04-16 11:56 17.72088 116.53332 37902 ft 459 kts 330°
2026-04-16 11:56 17.77752 116.50269 37902 ft 459 kts 331°
2026-04-16 11:57 17.83466 116.47200 37902 ft 460 kts 331°
2026-04-16 11:57 17.89167 116.44132 37903 ft 460 kts 331°
2026-04-16 11:58 17.94864 116.41054 37903 ft 459 kts 331°
2026-04-16 11:58 18.00539 116.37983 37903 ft 459 kts 331°
2026-04-16 11:59 18.06216 116.34907 37903 ft 459 kts 330°
2026-04-16 11:59 18.11890 116.31808 37903 ft 460 kts 330°
2026-04-16 12:00 18.17595 116.28710 37903 ft 460 kts 330°
2026-04-16 12:00 18.23274 116.25628 37903 ft 460 kts 330°
2026-04-16 12:01 18.28963 116.22535 37903 ft 459 kts 330°
2026-04-16 12:01 18.34625 116.19456 37903 ft 459 kts 330°
2026-04-16 12:02 18.43145 116.14817 37903 ft 458 kts 330°
2026-04-16 12:02 18.48834 116.11717 37904 ft 459 kts 330°
2026-04-16 12:03 18.54486 116.08633 37905 ft 459 kts 330°
2026-04-16 12:03 18.60181 116.05525 37903 ft 459 kts 330°
2026-04-16 12:04 18.65864 116.02419 37904 ft 459 kts 330°
2026-04-16 12:04 18.71543 115.99313 37904 ft 459 kts 329°
2026-04-16 12:05 18.77189 115.96221 37903 ft 459 kts 329°
2026-04-16 12:05 18.82876 115.93102 37903 ft 458 kts 329°
2026-04-16 12:06 18.88509 115.90013 37902 ft 458 kts 329°
2026-04-16 12:06 18.93956 115.86522 37900 ft 455 kts 321°
2026-04-16 12:07 18.98737 115.82197 37900 ft 452 kts 312°
2026-04-16 12:07 19.02754 115.77158 37893 ft 449 kts 303°
2026-04-16 12:08 19.06107 115.71613 37885 ft 447 kts 300°
2026-04-16 12:08 19.09357 115.66009 37883 ft 447 kts 300°
2026-04-16 12:09 19.12632 115.60409 37883 ft 448 kts 300°
2026-04-16 12:09 19.15898 115.54837 37887 ft 448 kts 300°
2026-04-16 12:10 19.19177 115.49213 37891 ft 449 kts 300°
2026-04-16 12:10 19.22441 115.43597 37891 ft 448 kts 300°
2026-04-16 12:11 19.25698 115.37979 37891 ft 448 kts 300°
2026-04-16 12:11 19.28937 115.32380 37889 ft 448 kts 299°
2026-04-16 12:12 19.32184 115.26773 37888 ft 447 kts 299°
2026-04-16 12:12 19.35442 115.21171 37887 ft 448 kts 299°
2026-04-16 12:13 19.38700 115.15556 37885 ft 448 kts 299°
2026-04-16 12:13 19.41968 115.09911 37885 ft 449 kts 299°
2026-04-16 12:14 19.45213 115.04295 37883 ft 449 kts 299°
2026-04-16 12:14 19.48469 114.98658 37886 ft 449 kts 299°
2026-04-16 12:15 19.51700 114.93055 37889 ft 448 kts 299°
2026-04-16 12:15 19.54948 114.87418 37893 ft 448 kts 299°
2026-04-16 12:16 19.58195 114.81776 37891 ft 447 kts 299°
2026-04-16 12:16 19.61422 114.76159 37896 ft 447 kts 299°
2026-04-16 12:17 19.64655 114.70520 37898 ft 446 kts 299°
2026-04-16 12:17 19.67866 114.64926 37896 ft 446 kts 299°
2026-04-16 12:18 19.71100 114.59300 37895 ft 447 kts 299°
2026-04-16 12:18 19.74314 114.53687 37894 ft 447 kts 299°
2026-04-16 12:19 19.77545 114.48045 37891 ft 447 kts 300°
2026-04-16 12:19 19.81538 114.42970 37890 ft 451 kts 315°
2026-04-16 12:20 19.86710 114.39133 37889 ft 458 kts 330°
2026-04-16 12:20 19.92707 114.36845 37887 ft 464 kts 345°
2026-04-16 12:21 19.99163 114.36037 37890 ft 468 kts 352°
2026-04-16 12:21 20.05675 114.35501 37892 ft 468 kts 352°
2026-04-16 12:22 20.12174 114.34956 37898 ft 468 kts 352°
2026-04-16 12:22 20.18676 114.34368 37900 ft 468 kts 351°
2026-04-16 12:23 20.25183 114.33781 37901 ft 468 kts 352°
2026-04-16 12:23 20.31706 114.33203 37900 ft 468 kts 352°
2026-04-16 12:24 20.38215 114.32630 37904 ft 469 kts 352°
2026-04-16 12:24 20.44715 114.32059 37899 ft 469 kts 351°
2026-04-16 12:25 20.51214 114.31486 37900 ft 469 kts 351°
2026-04-16 12:25 20.57725 114.30913 37673 ft 464 kts 351°
2026-04-16 12:26 20.60891 114.30636 37059 ft 462 kts 351°
2026-04-16 12:26 20.64107 114.30352 36142 ft 465 kts 351°
2026-04-16 12:26 20.67366 114.30063 35163 ft 468 kts 351°
2026-04-16 12:26 20.70604 114.29775 34223 ft 470 kts 351°
2026-04-16 12:27 20.73855 114.29487 33286 ft 472 kts 351°
2026-04-16 12:27 20.77142 114.29196 32340 ft 474 kts 351°
2026-04-16 12:27 20.80410 114.28906 31418 ft 476 kts 351°
2026-04-16 12:27 20.83747 114.28611 30450 ft 479 kts 351°
2026-04-16 12:28 20.87111 114.28323 29462 ft 481 kts 351°
2026-04-16 12:28 20.90450 114.28042 28453 ft 483 kts 351°
2026-04-16 12:28 20.93790 114.27759 27388 ft 485 kts 351°
2026-04-16 12:28 20.97165 114.27473 26382 ft 485 kts 352°
2026-04-16 12:29 21.00555 114.26974 25481 ft 476 kts 340°
2026-04-16 12:29 21.03504 114.25468 24662 ft 461 kts 321°
2026-04-16 12:29 21.05764 114.23083 23968 ft 447 kts 303°
2026-04-16 12:29 21.07231 114.20197 23262 ft 438 kts 290°
2026-04-16 12:30 21.08355 114.17171 22554 ft 435 kts 290°
2026-04-16 12:30 21.09504 114.14098 21818 ft 432 kts 290°
2026-04-16 12:30 21.10626 114.11130 21115 ft 428 kts 290°
2026-04-16 12:30 21.11773 114.08142 20391 ft 425 kts 290°
2026-04-16 12:31 21.12888 114.05238 19692 ft 421 kts 290°
2026-04-16 12:31 21.13995 114.02347 18993 ft 418 kts 290°
2026-04-16 12:31 21.15103 113.99443 18285 ft 414 kts 290°
2026-04-16 12:31 21.16178 113.96622 17609 ft 410 kts 291°
2026-04-16 12:32 21.17253 113.93795 16942 ft 407 kts 291°
2026-04-16 12:32 21.18314 113.91003 16269 ft 404 kts 291°
2026-04-16 12:32 21.19381 113.88195 15587 ft 401 kts 291°
2026-04-16 12:32 21.20430 113.85430 14911 ft 398 kts 291°
2026-04-16 12:33 21.21465 113.82700 14234 ft 395 kts 291°
2026-04-16 12:33 21.22513 113.79931 13553 ft 392 kts 291°
2026-04-16 12:33 21.23540 113.77217 12864 ft 391 kts 291°
2026-04-16 12:33 21.24549 113.74539 12232 ft 388 kts 291°
2026-04-16 12:34 21.25561 113.71859 11647 ft 384 kts 291°
2026-04-16 12:34 21.26554 113.69231 11096 ft 380 kts 292°
2026-04-16 12:34 21.27535 113.66647 10616 ft 373 kts 293°
2026-04-16 12:34 21.28884 113.64294 10390 ft 358 kts 315°
2026-04-16 12:35 21.30916 113.62912 10220 ft 341 kts 342°
2026-04-16 12:35 21.33241 113.62709 10076 ft 325 kts
2026-04-16 12:35 21.35345 113.63477 9973 ft 311 kts 25°
2026-04-16 12:35 21.37262 113.64455 9884 ft 297 kts 25°
2026-04-16 12:36 21.39089 113.65367 9650 ft 290 kts 24°
2026-04-16 12:36 21.40931 113.66242 9307 ft 287 kts 23°
2026-04-16 12:36 21.42779 113.67093 8972 ft 284 kts 23°
2026-04-16 12:36 21.44622 113.67791 8884 ft 274 kts 12°
2026-04-16 12:37 21.46518 113.67978 8882 ft 270 kts 358°
2026-04-16 12:37 21.48351 113.67831 8884 ft 268 kts 354°
2026-04-16 12:37 21.50206 113.67630 8883 ft 267 kts 354°
2026-04-16 12:37 21.52054 113.67426 8882 ft 266 kts 354°
2026-04-16 12:38 21.53896 113.67226 8882 ft 265 kts 354°
2026-04-16 12:38 21.55726 113.67032 8883 ft 265 kts 354°
2026-04-16 12:38 21.57582 113.66837 8883 ft 265 kts 353°
2026-04-16 12:38 21.59432 113.66644 8883 ft 266 kts 353°
2026-04-16 12:39 21.61267 113.66454 8883 ft 266 kts 353°
2026-04-16 12:39 21.63140 113.66260 8883 ft 266 kts 353°
2026-04-16 12:39 21.64992 113.66068 8884 ft 266 kts 353°
2026-04-16 12:39 21.66850 113.65877 8884 ft 266 kts 353°
2026-04-16 12:40 21.68691 113.65688 8884 ft 266 kts 353°
2026-04-16 12:40 21.70537 113.65497 8885 ft 266 kts 353°
2026-04-16 12:40 21.72403 113.65305 8886 ft 267 kts 353°
2026-04-16 12:40 21.74239 113.65115 8886 ft 267 kts 353°
2026-04-16 12:41 21.76099 113.64923 8886 ft 267 kts 353°
2026-04-16 12:41 21.77960 113.64730 8886 ft 267 kts 353°
2026-04-16 12:41 21.79675 113.64553 8885 ft 267 kts 353°
2026-04-16 12:41 21.81600 113.64354 8886 ft 267 kts 353°
2026-04-16 12:42 21.83387 113.64169 8887 ft 267 kts 353°
2026-04-16 12:42 21.85214 113.63980 8888 ft 268 kts 353°
2026-04-16 12:42 21.87035 113.63791 8889 ft 268 kts 353°
2026-04-16 12:42 21.88716 113.63616 8889 ft 268 kts 353°
2026-04-16 12:43 21.90633 113.63417 8887 ft 268 kts 353°
2026-04-16 12:43 21.92511 113.63222 8884 ft 268 kts 353°
2026-04-16 12:43 21.94377 113.63029 8878 ft 268 kts 353°
2026-04-16 12:43 21.96237 113.62837 8879 ft 268 kts 353°
2026-04-16 12:44 21.98096 113.62644 8883 ft 268 kts 353°
2026-04-16 12:44 21.99943 113.62453 8876 ft 268 kts 352°
2026-04-16 12:44 22.01765 113.62017 8876 ft 266 kts 337°
2026-04-16 12:44 22.03405 113.61063 8881 ft 264 kts 322°
2026-04-16 12:45 22.04876 113.59875 8890 ft 265 kts 322°
2026-04-16 12:45 22.06447 113.58670 8890 ft 283 kts 323°
2026-04-16 12:45 22.08046 113.57459 8800 ft 283 kts 324°
2026-04-16 12:45 22.09643 113.56271 8248 ft 294 kts 324°
2026-04-16 12:46 22.11324 113.55036 7815 ft 293 kts 324°
2026-04-16 12:46 22.12856 113.53893 7467 ft 283 kts 323°
2026-04-16 12:46 22.14270 113.52811 6986 ft 280 kts 323°
2026-04-16 12:46 22.15961 113.51505 6725 ft 278 kts 323°
2026-04-16 12:47 22.17539 113.50284 6631 ft 281 kts 323°
2026-04-16 12:47 22.19144 113.49046 6353 ft 280 kts 323°
2026-04-16 12:47 22.20772 113.47848 6038 ft 280 kts 330°
2026-04-16 12:47 22.22668 113.47372 5702 ft 280 kts
2026-04-16 12:48 22.24527 113.48099 5630 ft 281 kts 30°
2026-04-16 12:48 22.26172 113.49243 5380 ft 280 kts 33°
2026-04-16 12:48 22.27768 113.50386 5099 ft 279 kts 33°
2026-04-16 12:48 22.29368 113.51511 4813 ft 277 kts 32°
2026-04-16 12:49 22.30949 113.52599 4590 ft 272 kts 32°
2026-04-16 12:49 22.32529 113.53676 4558 ft 257 kts 32°
2026-04-16 12:49 22.33999 113.54673 4527 ft 243 kts 32°
2026-04-16 12:49 22.35385 113.55615 4489 ft 235 kts 34°
2026-04-16 12:50 22.36486 113.56853 4363 ft 234 kts 68°
2026-04-16 12:50 22.36757 113.58541 4131 ft 228 kts 94°
2026-04-16 12:50 22.36622 113.60239 3909 ft 223 kts 102°
2026-04-16 12:50 22.35989 113.61691 3704 ft 211 kts 141°
2026-04-16 12:51 22.34726 113.62367 3539 ft 195 kts 168°
2026-04-16 12:51 22.33417 113.62691 3291 ft 189 kts 169°
2026-04-16 12:51 22.32149 113.63023 3071 ft 185 kts 168°
2026-04-16 12:51 22.30885 113.63379 2850 ft 184 kts 167°
2026-04-16 12:52 22.29650 113.63746 2651 ft 184 kts 166°
2026-04-16 12:52 22.28387 113.64052 2456 ft 182 kts 177°
2026-04-16 12:52 22.27130 113.63935 2278 ft 179 kts 195°
2026-04-16 12:52 22.26039 113.63445 2112 ft 168 kts 211°
2026-04-16 12:53 22.25189 113.62700 2018 ft 151 kts 226°
2026-04-16 12:53 22.24520 113.61813 1864 ft 150 kts 231°
2026-04-16 12:53 22.23889 113.60912 1800 ft 150 kts 232°
2026-04-16 12:53 22.23260 113.60011 1657 ft 148 kts 232°
2026-04-16 12:54 22.22658 113.59152 1414 ft 138 kts 231°
2026-04-16 12:54 22.22074 113.58337 1216 ft 136 kts 226°
2026-04-16 12:54 22.21333 113.57715 1029 ft 136 kts 207°
2026-04-16 12:54 22.20421 113.57410 839 ft 136 kts 188°
2026-04-16 12:55 22.19481 113.57489 646 ft 137 kts 164°
2026-04-16 12:55 22.18585 113.57836 463 ft 135 kts 165°
2026-04-16 12:55 22.17679 113.58146 353 ft 135 kts 163°
2026-04-16 12:55 22.16784 113.58471 199 ft 134 kts 163°
2026-04-16 12:56 22.15902 113.58789 32 ft 130 kts 163°
2026-04-16 12:56 22.15113 113.59074 13 ft 97 kts 161°
2026-04-16 12:56 22.14635 113.59252 13 ft 47 kts 161°
2026-04-16 12:56 22.14417 113.59332 13 ft 27 kts 160°
2026-04-16 12:57 22.14265 113.59389 13 ft 13 kts 161°
2026-04-16 12:57 22.14185 113.59400 13 ft 7 kts 210°
2026-04-16 12:57 22.14154 113.59347 13 ft 9 kts 251°
2026-04-16 12:57 22.14134 113.59277 13 ft 9 kts 264°
2026-04-16 12:58 22.14160 113.59241 13 ft 5 kts 339°
2026-04-16 12:58 22.14200 113.59225 13 ft 7 kts 340°
2026-04-16 12:58 22.14260 113.59203 13 ft 11 kts 341°
2026-04-16 12:58 22.14348 113.59171 13 ft 15 kts 342°
2026-04-16 12:59 22.14455 113.59132 13 ft 17 kts 341°
2026-04-16 12:59 22.14572 113.59088 13 ft 18 kts 341°
2026-04-16 12:59 22.14694 113.59044 13 ft 18 kts 342°
2026-04-16 13:00 22.14803 113.58913 11 ft 13 kts 303°
2026-04-16 13:00 22.14858 113.58824 10 ft 15 kts 305°
2026-04-16 13:00 22.14919 113.58727 9 ft 16 kts 303°
2026-04-16 13:00 22.14979 113.58627 10 ft 16 kts 304°
2026-04-16 13:01 22.15044 113.58521 10 ft 17 kts 302°
2026-04-16 13:01 22.15107 113.58422 9 ft 15 kts 305°
2026-04-16 13:01 22.15167 113.58325 9 ft 15 kts 303°
2026-04-16 13:01 22.15227 113.58224 9 ft 16 kts 304°
2026-04-16 13:02 22.15292 113.58123 9 ft 16 kts 303°
2026-04-16 13:02 22.15356 113.58017 10 ft 17 kts 303°
2026-04-16 13:02 22.15418 113.57916 11 ft 13 kts 304°
2026-04-16 13:02 22.15465 113.57845 12 ft 9 kts 303°
2026-04-16 13:03 22.15499 113.57788 13 ft 9 kts 303°
2026-04-16 13:03 22.15535 113.57728 14 ft 9 kts 303°
2026-04-16 13:03 22.15571 113.57667 15 ft 9 kts 304°
2026-04-16 13:03 22.15605 113.57614 17 ft 5 kts 306°
2026-04-16 13:04 22.15627 113.57594 18 ft 3 kts 322°
2026-04-16 13:04 22.15641 113.57581 19 ft 2 kts 315°
2026-04-16 13:04 22.15652 113.57568 19 ft 2 kts 313°
2026-04-16 13:04 22.15666 113.57552 20 ft 3 kts 313°
2026-04-16 13:05 22.15677 113.57539 21 ft 1 kts 313°
2026-04-16 13:05 22.15685 113.57530 22 ft 2 kts 314°
2026-04-16 13:05 22.15699 113.57514 23 ft 3 kts 314°
2026-04-16 13:05 22.15702 113.57510 23 ft 0 kts 313°